contact:dominique.lefevre@mio.osupytheas.fr, maurice.libes@osupytheas.fr, didier.mallarino@osupytheas.fr
Project:EMSO http://www.emso-fr.org/EMSO-France
Depth: 2436.0 m
Title:EMSO Ligure Ouest : Data MII capteur CSTAR
DateTime,Latitude,Longitude,Instrument_Serial,Reference_Counts,Signal_Counts,Corrected_Signal_raw_counts,Calculated_Beam_c_inverse_meters,Internal_thermistor_counts
DateTime,Latitude,Longitude,Instrument_Serial,Reference_Counts,Signal_Counts,Corrected_Signal_raw_counts,Calculated_Beam_c_inverse_meters,Internal_thermistor_counts
2021-07-07T00:01:20,42.805,6.029,CST-1368DR,5413,7528,14921,0.182,551
2021-07-07T00:04:22,42.805,6.029,CST-1368DR,5413,7529,14923,0.182,551
2021-07-07T00:07:24,42.805,6.029,CST-1368DR,5413,7528,14921,0.182,551
2021-07-07T00:10:25,42.805,6.029,CST-1368DR,5413,7528,14921,0.182,551
2021-07-07T00:13:27,42.805,6.029,CST-1368DR,5413,7526,14919,0.183,551
2021-07-07T00:16:28,42.805,6.029,CST-1368DR,5413,7528,14922,0.182,551
2021-07-07T00:19:30,42.805,6.029,CST-1368DR,5413,7528,14922,0.182,551
2021-07-07T00:22:31,42.805,6.029,CST-1368DR,5412,7527,14923,0.182,551
2021-07-07T00:25:33,42.805,6.029,CST-1368DR,5413,7528,14922,0.182,551
2021-07-07T00:28:35,42.805,6.029,CST-1368DR,5413,7528,14922,0.182,551
2021-07-07T00:31:36,42.805,6.029,CST-1368DR,5413,7528,14922,0.182,551
2021-07-07T00:34:38,42.805,6.029,CST-1368DR,5413,7529,14923,0.182,551
2021-07-07T00:37:39,42.805,6.029,CST-1368DR,5413,7528,14922,0.182,551
2021-07-07T00:40:41,42.805,6.029,CST-1368DR,5412,7528,14924,0.181,551
2021-07-07T00:43:43,42.805,6.029,CST-1368DR,5412,7527,14923,0.182,551
2021-07-07T00:46:44,42.805,6.029,CST-1368DR,5413,7528,14921,0.182,551
2021-07-07T00:49:46,42.805,6.029,CST-1368DR,5412,7528,14924,0.181,551
2021-07-07T00:52:47,42.805,6.029,CST-1368DR,5412,7528,14924,0.181,551
2021-07-07T00:55:49,42.805,6.029,CST-1368DR,5412,7528,14924,0.181,551
2021-07-07T00:58:50,42.805,6.029,CST-1368DR,5412,7527,14922,0.182,551
2021-07-07T01:01:52,42.805,6.029,CST-1368DR,5412,7528,14924,0.181,551
2021-07-07T01:04:54,42.805,6.029,CST-1368DR,5413,7528,14922,0.182,551
2021-07-07T01:07:55,42.805,6.029,CST-1368DR,5412,7528,14925,0.181,551
2021-07-07T01:10:57,42.805,6.029,CST-1368DR,5412,7529,14926,0.181,551
2021-07-07T01:13:58,42.805,6.029,CST-1368DR,5412,7528,14924,0.181,551
2021-07-07T01:17:00,42.805,6.029,CST-1368DR,5412,7529,14926,0.181,551
2021-07-07T01:20:01,42.805,6.029,CST-1368DR,5412,7529,14926,0.181,551
2021-07-07T01:23:03,42.805,6.029,CST-1368DR,5412,7528,14925,0.181,551
2021-07-07T01:26:05,42.805,6.029,CST-1368DR,5412,7527,14923,0.182,551
2021-07-07T01:29:06,42.805,6.029,CST-1368DR,5412,7528,14924,0.181,550
2021-07-07T01:32:08,42.805,6.029,CST-1368DR,5412,7528,14924,0.181,551
2021-07-07T01:35:09,42.805,6.029,CST-1368DR,5412,7528,14925,0.181,551
2021-07-07T01:38:11,42.805,6.029,CST-1368DR,5412,7528,14925,0.181,551
2021-07-07T01:41:13,42.805,6.029,CST-1368DR,5412,7528,14924,0.181,550
2021-07-07T01:44:14,42.805,6.029,CST-1368DR,5412,7528,14924,0.181,551
2021-07-07T01:47:16,42.805,6.029,CST-1368DR,5412,7528,14924,0.181,551
2021-07-07T01:50:17,42.805,6.029,CST-1368DR,5412,7527,14923,0.182,551
2021-07-07T01:53:19,42.805,6.029,CST-1368DR,5412,7526,14921,0.182,551
2021-07-07T01:56:20,42.805,6.029,CST-1368DR,5412,7528,14925,0.181,551
2021-07-07T01:59:22,42.805,6.029,CST-1368DR,5412,7528,14925,0.181,551
2021-07-07T02:02:24,42.805,6.029,CST-1368DR,5412,7529,14927,0.180,551
2021-07-07T02:05:25,42.805,6.029,CST-1368DR,5412,7528,14924,0.181,551
2021-07-07T02:08:27,42.805,6.029,CST-1368DR,5412,7527,14923,0.182,551
2021-07-07T02:11:28,42.805,6.029,CST-1368DR,5412,7527,14923,0.182,551
2021-07-07T02:14:30,42.805,6.029,CST-1368DR,5412,7529,14926,0.181,551
2021-07-07T02:17:31,42.805,6.029,CST-1368DR,5412,7528,14924,0.181,551
2021-07-07T02:20:33,42.805,6.029,CST-1368DR,5412,7528,14925,0.181,551
2021-07-07T02:23:35,42.805,6.029,CST-1368DR,5412,7526,14921,0.182,551
2021-07-07T02:26:36,42.805,6.029,CST-1368DR,5412,7528,14924,0.181,551
2021-07-07T02:29:38,42.805,6.029,CST-1368DR,5412,7528,14925,0.181,551
2021-07-07T02:32:39,42.805,6.029,CST-1368DR,5412,7528,14924,0.181,551
2021-07-07T02:35:41,42.805,6.029,CST-1368DR,5412,7527,14923,0.182,551
2021-07-07T02:38:43,42.805,6.029,CST-1368DR,5412,7527,14923,0.182,551
2021-07-07T02:41:44,42.805,6.029,CST-1368DR,5412,7520,14909,0.185,551
2021-07-07T02:44:46,42.805,6.029,CST-1368DR,5412,7527,14923,0.182,551
2021-07-07T02:47:47,42.805,6.029,CST-1368DR,5412,7528,14924,0.181,551
2021-07-07T02:50:49,42.805,6.029,CST-1368DR,5412,7528,14924,0.181,551
2021-07-07T02:53:50,42.805,6.029,CST-1368DR,5412,7526,14921,0.182,551
2021-07-07T02:56:52,42.805,6.029,CST-1368DR,5412,7527,14923,0.182,551
2021-07-07T02:59:54,42.805,6.029,CST-1368DR,5412,7528,14924,0.181,551
2021-07-07T03:02:55,42.805,6.029,CST-1368DR,5412,7528,14924,0.181,551
2021-07-07T03:05:57,42.805,6.029,CST-1368DR,5412,7527,14923,0.182,551
2021-07-07T03:08:58,42.805,6.029,CST-1368DR,5412,7527,14923,0.182,551
2021-07-07T03:12:00,42.805,6.029,CST-1368DR,5412,7527,14923,0.182,551
2021-07-07T03:15:02,42.805,6.029,CST-1368DR,5412,7526,14921,0.182,551
2021-07-07T03:18:03,42.805,6.029,CST-1368DR,5412,7527,14922,0.182,551
2021-07-07T03:21:05,42.805,6.029,CST-1368DR,5412,7526,14921,0.182,551
2021-07-07T03:24:06,42.805,6.029,CST-1368DR,5412,7526,14921,0.182,551
2021-07-07T03:27:08,42.805,6.029,CST-1368DR,5412,7528,14924,0.181,551
2021-07-07T03:30:09,42.805,6.029,CST-1368DR,5412,7527,14923,0.182,551
2021-07-07T03:33:11,42.805,6.029,CST-1368DR,5412,7527,14923,0.182,551
2021-07-07T03:36:13,42.805,6.029,CST-1368DR,5412,7527,14923,0.182,551
2021-07-07T03:39:14,42.805,6.029,CST-1368DR,5412,7528,14924,0.181,551
2021-07-07T03:42:16,42.805,6.029,CST-1368DR,5412,7527,14922,0.182,551
2021-07-07T03:45:17,42.805,6.029,CST-1368DR,5412,7525,14919,0.183,551
2021-07-07T03:48:19,42.805,6.029,CST-1368DR,5412,7527,14922,0.182,551
2021-07-07T03:51:20,42.805,6.029,CST-1368DR,5412,7527,14923,0.182,551
2021-07-07T03:54:22,42.805,6.029,CST-1368DR,5412,7527,14922,0.182,551
2021-07-07T03:57:24,42.805,6.029,CST-1368DR,5412,7527,14923,0.182,551
2021-07-07T04:00:25,42.805,6.029,CST-1368DR,5412,7526,14921,0.182,551
2021-07-07T04:03:27,42.805,6.029,CST-1368DR,5412,7527,14922,0.182,551
2021-07-07T04:06:28,42.805,6.029,CST-1368DR,5412,7527,14923,0.182,551
2021-07-07T04:09:30,42.805,6.029,CST-1368DR,5412,7527,14923,0.182,551
2021-07-07T04:12:32,42.805,6.029,CST-1368DR,5412,7527,14923,0.182,551
2021-07-07T04:15:33,42.805,6.029,CST-1368DR,5412,7526,14921,0.182,551
2021-07-07T04:18:35,42.805,6.029,CST-1368DR,5412,7527,14922,0.182,551
2021-07-07T04:21:36,42.805,6.029,CST-1368DR,5412,7526,14921,0.182,551
2021-07-07T04:24:38,42.805,6.029,CST-1368DR,5412,7527,14923,0.182,551
2021-07-07T04:27:39,42.805,6.029,CST-1368DR,5412,7526,14921,0.182,550
2021-07-07T04:30:41,42.805,6.029,CST-1368DR,5412,7527,14922,0.182,551
2021-07-07T04:33:43,42.805,6.029,CST-1368DR,5412,7527,14922,0.182,551
2021-07-07T04:36:44,42.805,6.029,CST-1368DR,5412,7527,14923,0.182,551
2021-07-07T04:39:46,42.805,6.029,CST-1368DR,5412,7527,14923,0.182,551
2021-07-07T04:42:47,42.805,6.029,CST-1368DR,5412,7526,14921,0.182,551
2021-07-07T04:45:49,42.805,6.029,CST-1368DR,5412,7526,14921,0.182,551
2021-07-07T04:48:51,42.805,6.029,CST-1368DR,5412,7527,14922,0.182,551
2021-07-07T04:51:52,42.805,6.029,CST-1368DR,5412,7528,14924,0.181,551
2021-07-07T04:54:54,42.805,6.029,CST-1368DR,5412,7527,14923,0.182,551
2021-07-07T04:57:55,42.805,6.029,CST-1368DR,5412,7527,14922,0.182,551
2021-07-07T05:00:57,42.805,6.029,CST-1368DR,5412,7527,14922,0.182,551
2021-07-07T05:03:58,42.805,6.029,CST-1368DR,5412,7527,14922,0.182,551
2021-07-07T05:07:00,42.805,6.029,CST-1368DR,5412,7527,14923,0.182,551
2021-07-07T05:10:02,42.805,6.029,CST-1368DR,5412,7527,14922,0.182,551
2021-07-07T05:13:03,42.805,6.029,CST-1368DR,5412,7527,14922,0.182,551
2021-07-07T05:16:05,42.805,6.029,CST-1368DR,5412,7528,14924,0.181,551
2021-07-07T05:19:06,42.805,6.029,CST-1368DR,5412,7527,14922,0.182,551
2021-07-07T05:22:08,42.805,6.029,CST-1368DR,5412,7527,14923,0.182,551
2021-07-07T05:25:09,42.805,6.029,CST-1368DR,5412,7526,14920,0.182,551
2021-07-07T05:28:11,42.805,6.029,CST-1368DR,5412,7527,14922,0.182,551
2021-07-07T05:31:13,42.805,6.029,CST-1368DR,5412,7527,14922,0.182,551
2021-07-07T05:34:14,42.805,6.029,CST-1368DR,5412,7527,14923,0.182,551
2021-07-07T05:37:16,42.805,6.029,CST-1368DR,5412,7526,14920,0.182,551
2021-07-07T05:40:17,42.805,6.029,CST-1368DR,5412,7527,14922,0.182,550
2021-07-07T05:43:19,42.805,6.029,CST-1368DR,5412,7527,14923,0.182,551
2021-07-07T05:46:21,42.805,6.029,CST-1368DR,5412,7525,14919,0.183,551
2021-07-07T05:49:22,42.805,6.029,CST-1368DR,5412,7527,14923,0.182,551
2021-07-07T05:52:24,42.805,6.029,CST-1368DR,5412,7526,14921,0.182,551
2021-07-07T05:55:25,42.805,6.029,CST-1368DR,5412,7526,14921,0.182,550
2021-07-07T05:58:27,42.805,6.029,CST-1368DR,5412,7526,14920,0.182,551
2021-07-07T06:01:28,42.805,6.029,CST-1368DR,5412,7526,14920,0.182,551
2021-07-07T06:04:30,42.805,6.029,CST-1368DR,5412,7526,14921,0.182,550
2021-07-07T06:07:32,42.805,6.029,CST-1368DR,5412,7526,14921,0.182,551
2021-07-07T06:10:33,42.805,6.029,CST-1368DR,5412,7527,14923,0.182,551
2021-07-07T06:13:35,42.805,6.029,CST-1368DR,5412,7527,14922,0.182,551
2021-07-07T06:16:36,42.805,6.029,CST-1368DR,5412,7526,14921,0.182,551
2021-07-07T06:19:38,42.805,6.029,CST-1368DR,5412,7526,14921,0.182,551
2021-07-07T06:22:40,42.805,6.029,CST-1368DR,5412,7527,14923,0.182,550
2021-07-07T06:25:41,42.805,6.029,CST-1368DR,5412,7527,14922,0.182,551
2021-07-07T06:28:43,42.805,6.029,CST-1368DR,5412,7527,14922,0.182,551
2021-07-07T06:31:44,42.805,6.029,CST-1368DR,5412,7526,14921,0.182,551
2021-07-07T06:34:46,42.805,6.029,CST-1368DR,5412,7525,14919,0.183,551
2021-07-07T06:37:47,42.805,6.029,CST-1368DR,5412,7527,14922,0.182,551
2021-07-07T06:40:49,42.805,6.029,CST-1368DR,5412,7527,14922,0.182,551
2021-07-07T06:43:51,42.805,6.029,CST-1368DR,5412,7526,14921,0.182,551
2021-07-07T06:46:52,42.805,6.029,CST-1368DR,5412,7527,14922,0.182,551
2021-07-07T06:49:54,42.805,6.029,CST-1368DR,5412,7527,14922,0.182,551
2021-07-07T06:52:55,42.805,6.029,CST-1368DR,5412,7526,14920,0.182,551
2021-07-07T06:55:57,42.805,6.029,CST-1368DR,5412,7527,14922,0.182,551
2021-07-07T06:58:58,42.805,6.029,CST-1368DR,5412,7525,14918,0.183,551
2021-07-07T07:02:00,42.805,6.029,CST-1368DR,5412,7526,14921,0.182,551
2021-07-07T07:05:02,42.805,6.029,CST-1368DR,5412,7526,14921,0.182,551
2021-07-07T07:08:03,42.805,6.029,CST-1368DR,5412,7526,14921,0.182,550
2021-07-07T07:11:05,42.805,6.029,CST-1368DR,5412,7526,14921,0.182,551
2021-07-07T07:14:06,42.805,6.029,CST-1368DR,5412,7526,14920,0.182,550
2021-07-07T07:17:08,42.805,6.029,CST-1368DR,5412,7527,14922,0.182,551
2021-07-07T07:20:10,42.805,6.029,CST-1368DR,5412,7527,14922,0.182,551
2021-07-07T07:23:11,42.805,6.029,CST-1368DR,5412,7526,14921,0.182,551
2021-07-07T07:26:13,42.805,6.029,CST-1368DR,5412,7525,14919,0.183,551
2021-07-07T07:29:14,42.805,6.029,CST-1368DR,5412,7526,14920,0.182,551
2021-07-07T07:32:16,42.805,6.029,CST-1368DR,5412,7524,14916,0.183,551
2021-07-07T07:35:17,42.805,6.029,CST-1368DR,5412,7526,14920,0.182,551
2021-07-07T07:38:19,42.805,6.029,CST-1368DR,5412,7524,14916,0.183,551
2021-07-07T07:41:21,42.805,6.029,CST-1368DR,5412,7526,14921,0.182,551
2021-07-07T07:44:22,42.805,6.029,CST-1368DR,5412,7526,14921,0.182,551
2021-07-07T07:47:24,42.805,6.029,CST-1368DR,5412,7526,14920,0.182,551
2021-07-07T07:50:25,42.805,6.029,CST-1368DR,5412,7526,14921,0.182,551
2021-07-07T07:53:27,42.805,6.029,CST-1368DR,5411,7527,14925,0.181,551
2021-07-07T07:56:28,42.805,6.029,CST-1368DR,5411,7526,14924,0.181,551
2021-07-07T07:59:30,42.805,6.029,CST-1368DR,5412,7525,14919,0.183,551
2021-07-07T08:02:32,42.805,6.029,CST-1368DR,5411,7526,14924,0.181,551
2021-07-07T08:05:33,42.805,6.029,CST-1368DR,5412,7525,14919,0.183,551
2021-07-07T08:08:35,42.805,6.029,CST-1368DR,5412,7526,14921,0.182,551
2021-07-07T08:11:36,42.805,6.029,CST-1368DR,5411,7526,14923,0.182,551
2021-07-07T08:14:38,42.805,6.029,CST-1368DR,5411,7526,14923,0.182,551
2021-07-07T08:17:40,42.805,6.029,CST-1368DR,5411,7525,14922,0.182,551
2021-07-07T08:20:41,42.805,6.029,CST-1368DR,5411,7526,14923,0.182,551
2021-07-07T08:23:43,42.805,6.029,CST-1368DR,5411,7526,14923,0.182,551
2021-07-07T08:26:44,42.805,6.029,CST-1368DR,5412,7526,14920,0.182,551
2021-07-07T08:29:46,42.805,6.029,CST-1368DR,5411,7526,14923,0.182,551
2021-07-07T08:32:47,42.805,6.029,CST-1368DR,5411,7521,14913,0.184,551
2021-07-07T08:40:07,42.805,6.029,CST-1368DR,5411,7525,14922,0.182,551
2021-07-07T08:43:09,42.805,6.029,CST-1368DR,5411,7525,14921,0.182,551
2021-07-07T08:46:10,42.805,6.029,CST-1368DR,5411,7526,14923,0.182,551
2021-07-07T08:49:12,42.805,6.029,CST-1368DR,5411,7525,14920,0.182,551
2021-07-07T08:52:13,42.805,6.029,CST-1368DR,5411,7525,14922,0.182,551
2021-07-07T08:55:15,42.805,6.029,CST-1368DR,5411,7525,14921,0.182,551
2021-07-07T08:58:16,42.805,6.029,CST-1368DR,5411,7525,14920,0.182,551
2021-07-07T09:01:18,42.805,6.029,CST-1368DR,5411,7525,14922,0.182,551
2021-07-07T09:04:20,42.805,6.029,CST-1368DR,5411,7527,14924,0.181,551
2021-07-07T09:07:21,42.805,6.029,CST-1368DR,5411,7526,14923,0.182,551
2021-07-07T09:10:23,42.805,6.029,CST-1368DR,5411,7525,14921,0.182,551
2021-07-07T09:13:24,42.805,6.029,CST-1368DR,5411,7526,14923,0.182,551
2021-07-07T09:16:26,42.805,6.029,CST-1368DR,5411,7524,14920,0.182,551
2021-07-07T09:19:27,42.805,6.029,CST-1368DR,5411,7525,14922,0.182,551
2021-07-07T09:22:29,42.805,6.029,CST-1368DR,5411,7525,14921,0.182,551
2021-07-07T09:25:31,42.805,6.029,CST-1368DR,5411,7526,14923,0.182,551
2021-07-07T09:28:32,42.805,6.029,CST-1368DR,5411,7525,14922,0.182,551
2021-07-07T09:31:34,42.805,6.029,CST-1368DR,5411,7525,14922,0.182,551
2021-07-07T09:34:35,42.805,6.029,CST-1368DR,5411,7521,14914,0.184,551
2021-07-07T09:37:37,42.805,6.029,CST-1368DR,5411,7526,14924,0.181,551
2021-07-07T09:40:39,42.805,6.029,CST-1368DR,5411,7526,14923,0.182,551
2021-07-07T09:43:40,42.805,6.029,CST-1368DR,5411,7527,14925,0.181,551
2021-07-07T09:46:42,42.805,6.029,CST-1368DR,5411,7527,14924,0.181,551
2021-07-07T09:49:43,42.805,6.029,CST-1368DR,5411,7526,14923,0.182,551
2021-07-07T09:52:45,42.805,6.029,CST-1368DR,5411,7526,14924,0.181,551
2021-07-07T09:55:46,42.805,6.029,CST-1368DR,5411,7525,14921,0.182,551
2021-07-07T09:58:48,42.805,6.029,CST-1368DR,5411,7525,14921,0.182,551
2021-07-07T10:01:50,42.805,6.029,CST-1368DR,5411,7525,14921,0.182,551
2021-07-07T10:04:51,42.805,6.029,CST-1368DR,5411,7526,14923,0.182,551
2021-07-07T10:07:53,42.805,6.029,CST-1368DR,5411,7526,14924,0.181,551
2021-07-07T10:10:54,42.805,6.029,CST-1368DR,5411,7525,14922,0.182,551
2021-07-07T10:13:56,42.805,6.029,CST-1368DR,5411,7526,14923,0.182,551
2021-07-07T10:16:58,42.805,6.029,CST-1368DR,5411,7525,14921,0.182,551
2021-07-07T10:19:59,42.805,6.029,CST-1368DR,5411,7527,14924,0.181,551
2021-07-07T10:23:01,42.805,6.029,CST-1368DR,5411,7526,14923,0.182,551
2021-07-07T10:26:02,42.805,6.029,CST-1368DR,5411,7525,14921,0.182,551
2021-07-07T10:29:04,42.805,6.029,CST-1368DR,5411,7526,14923,0.182,551
2021-07-07T10:32:05,42.805,6.029,CST-1368DR,5411,7526,14923,0.182,551
2021-07-07T10:35:07,42.805,6.029,CST-1368DR,5411,7525,14921,0.182,551
2021-07-07T10:38:09,42.805,6.029,CST-1368DR,5411,7526,14923,0.182,551
2021-07-07T10:41:10,42.805,6.029,CST-1368DR,5411,7526,14924,0.181,551
2021-07-07T10:44:12,42.805,6.029,CST-1368DR,5411,7524,14920,0.182,551
2021-07-07T10:47:13,42.805,6.029,CST-1368DR,5411,7526,14923,0.182,551
2021-07-07T10:50:15,42.805,6.029,CST-1368DR,5411,7526,14924,0.181,551
2021-07-07T10:53:16,42.805,6.029,CST-1368DR,5411,7525,14921,0.182,551
2021-07-07T10:56:18,42.805,6.029,CST-1368DR,5411,7526,14923,0.182,551
2021-07-07T10:59:20,42.805,6.029,CST-1368DR,5411,7525,14921,0.182,551
2021-07-07T11:02:21,42.805,6.029,CST-1368DR,5411,7526,14923,0.182,551
2021-07-07T11:05:23,42.805,6.029,CST-1368DR,5411,7524,14920,0.182,551
2021-07-07T11:08:24,42.805,6.029,CST-1368DR,5411,7526,14924,0.181,551
2021-07-07T11:11:26,42.805,6.029,CST-1368DR,5411,7526,14923,0.182,551
2021-07-07T11:14:28,42.805,6.029,CST-1368DR,5411,7524,14919,0.183,551
2021-07-07T11:17:29,42.805,6.029,CST-1368DR,5411,7527,14924,0.181,551
2021-07-07T11:20:31,42.805,6.029,CST-1368DR,5411,7524,14920,0.182,551
2021-07-07T11:23:32,42.805,6.029,CST-1368DR,5411,7526,14923,0.182,551
2021-07-07T11:26:34,42.805,6.029,CST-1368DR,5411,7523,14918,0.183,551
2021-07-07T11:29:35,42.805,6.029,CST-1368DR,5411,7526,14923,0.182,551
2021-07-07T11:32:37,42.805,6.029,CST-1368DR,5411,7524,14919,0.183,551
2021-07-07T11:35:39,42.805,6.029,CST-1368DR,5411,7526,14924,0.181,551
2021-07-07T11:38:40,42.805,6.029,CST-1368DR,5411,7524,14920,0.182,551
2021-07-07T11:41:42,42.805,6.029,CST-1368DR,5411,7525,14921,0.182,551
2021-07-07T11:44:43,42.805,6.029,CST-1368DR,5411,7526,14923,0.182,551
2021-07-07T11:47:45,42.805,6.029,CST-1368DR,5411,7525,14921,0.182,551
2021-07-07T11:50:47,42.805,6.029,CST-1368DR,5411,7525,14921,0.182,551
2021-07-07T11:53:48,42.805,6.029,CST-1368DR,5411,7525,14921,0.182,550
2021-07-07T11:56:50,42.805,6.029,CST-1368DR,5411,7524,14919,0.183,551
2021-07-07T11:59:51,42.805,6.029,CST-1368DR,5411,7526,14923,0.182,551
2021-07-07T12:02:53,42.805,6.029,CST-1368DR,5411,7524,14919,0.183,551
2021-07-07T12:05:54,42.805,6.029,CST-1368DR,5411,7522,14914,0.184,551
2021-07-07T12:08:56,42.805,6.029,CST-1368DR,5411,7523,14918,0.183,551
2021-07-07T12:11:58,42.805,6.029,CST-1368DR,5411,7525,14921,0.182,551
2021-07-07T12:14:59,42.805,6.029,CST-1368DR,5411,7525,14921,0.182,551
2021-07-07T12:18:01,42.805,6.029,CST-1368DR,5411,7525,14921,0.182,551
2021-07-07T12:21:02,42.805,6.029,CST-1368DR,5411,7525,14921,0.182,551
2021-07-07T12:24:04,42.805,6.029,CST-1368DR,5411,7525,14921,0.182,551
2021-07-07T12:27:06,42.805,6.029,CST-1368DR,5411,7525,14921,0.182,551
2021-07-07T12:30:07,42.805,6.029,CST-1368DR,5411,7524,14919,0.183,551
2021-07-07T12:33:09,42.805,6.029,CST-1368DR,5411,7525,14922,0.182,551
2021-07-07T12:36:10,42.805,6.029,CST-1368DR,5411,7525,14921,0.182,551
2021-07-07T12:39:12,42.805,6.029,CST-1368DR,5411,7525,14920,0.182,551
2021-07-07T12:42:13,42.805,6.029,CST-1368DR,5411,7525,14920,0.182,550
2021-07-07T12:45:15,42.805,6.029,CST-1368DR,5411,7524,14919,0.183,551
2021-07-07T12:48:17,42.805,6.029,CST-1368DR,5411,7526,14923,0.182,551
2021-07-07T12:51:18,42.805,6.029,CST-1368DR,5411,7526,14923,0.182,551
2021-07-07T12:54:20,42.805,6.029,CST-1368DR,5411,7524,14920,0.182,551
2021-07-07T12:57:21,42.805,6.029,CST-1368DR,5411,7525,14921,0.182,551
2021-07-07T13:00:23,42.805,6.029,CST-1368DR,5411,7526,14923,0.182,551
2021-07-07T13:03:24,42.805,6.029,CST-1368DR,5411,7525,14920,0.182,551
2021-07-07T13:06:26,42.805,6.029,CST-1368DR,5411,7525,14921,0.182,551
2021-07-07T13:09:28,42.805,6.029,CST-1368DR,5411,7524,14920,0.182,551
2021-07-07T13:12:29,42.805,6.029,CST-1368DR,5411,7524,14920,0.182,551
2021-07-07T13:15:31,42.805,6.029,CST-1368DR,5411,7525,14921,0.182,551
2021-07-07T13:18:32,42.805,6.029,CST-1368DR,5411,7525,14920,0.182,550
2021-07-07T13:21:34,42.805,6.029,CST-1368DR,5411,7524,14920,0.182,551
2021-07-07T13:24:36,42.805,6.029,CST-1368DR,5411,7523,14917,0.183,551
2021-07-07T13:27:37,42.805,6.029,CST-1368DR,5411,7525,14921,0.182,551
2021-07-07T13:30:39,42.805,6.029,CST-1368DR,5411,7525,14920,0.182,551
2021-07-07T13:33:40,42.805,6.029,CST-1368DR,5411,7525,14921,0.182,551
2021-07-07T13:36:42,42.805,6.029,CST-1368DR,5411,7524,14919,0.183,551
2021-07-07T13:39:43,42.805,6.029,CST-1368DR,5411,7525,14920,0.182,551
2021-07-07T13:42:45,42.805,6.029,CST-1368DR,5411,7525,14921,0.182,551
2021-07-07T13:45:47,42.805,6.029,CST-1368DR,5411,7523,14917,0.183,551
2021-07-07T13:48:48,42.805,6.029,CST-1368DR,5411,7525,14922,0.182,551
2021-07-07T13:51:50,42.805,6.029,CST-1368DR,5411,7525,14922,0.182,551
2021-07-07T13:54:51,42.805,6.029,CST-1368DR,5411,7525,14922,0.182,551
2021-07-07T13:57:53,42.805,6.029,CST-1368DR,5411,7526,14923,0.182,551
2021-07-07T14:00:54,42.805,6.029,CST-1368DR,5411,7524,14919,0.183,551
2021-07-07T14:03:56,42.805,6.029,CST-1368DR,5411,7524,14920,0.182,551
2021-07-07T14:06:58,42.805,6.029,CST-1368DR,5411,7525,14922,0.182,551
2021-07-07T14:09:59,42.805,6.029,CST-1368DR,5411,7525,14920,0.182,551
2021-07-07T14:13:01,42.805,6.029,CST-1368DR,5411,7524,14920,0.182,551
2021-07-07T14:16:02,42.805,6.029,CST-1368DR,5411,7525,14920,0.182,551
2021-07-07T14:19:04,42.805,6.029,CST-1368DR,5411,7525,14921,0.182,551
2021-07-07T14:22:06,42.805,6.029,CST-1368DR,5411,7525,14920,0.182,551
2021-07-07T14:25:07,42.805,6.029,CST-1368DR,5411,7524,14920,0.182,550
2021-07-07T14:28:09,42.805,6.029,CST-1368DR,5411,7525,14921,0.182,551
2021-07-07T14:31:10,42.805,6.029,CST-1368DR,5411,7524,14919,0.183,551
2021-07-07T14:34:12,42.805,6.029,CST-1368DR,5411,7524,14920,0.182,551
2021-07-07T14:37:13,42.805,6.029,CST-1368DR,5411,7524,14920,0.182,551
2021-07-07T14:40:15,42.805,6.029,CST-1368DR,5411,7524,14919,0.183,551
2021-07-07T14:43:17,42.805,6.029,CST-1368DR,5411,7524,14920,0.182,551
2021-07-07T14:46:18,42.805,6.029,CST-1368DR,5411,7524,14918,0.183,551
2021-07-07T14:49:20,42.805,6.029,CST-1368DR,5411,7525,14920,0.182,551
2021-07-07T14:52:21,42.805,6.029,CST-1368DR,5411,7521,14914,0.184,551
2021-07-07T14:55:23,42.805,6.029,CST-1368DR,5411,7525,14921,0.182,551
2021-07-07T14:58:25,42.805,6.029,CST-1368DR,5411,7524,14919,0.183,551
2021-07-07T15:01:26,42.805,6.029,CST-1368DR,5411,7524,14920,0.182,551
2021-07-07T15:04:28,42.805,6.029,CST-1368DR,5410,7524,14921,0.182,551
2021-07-07T15:07:29,42.805,6.029,CST-1368DR,5411,7524,14919,0.183,551
2021-07-07T15:10:31,42.805,6.029,CST-1368DR,5410,7525,14923,0.182,551
2021-07-07T15:13:32,42.805,6.029,CST-1368DR,5411,7524,14919,0.183,551
2021-07-07T15:16:34,42.805,6.029,CST-1368DR,5411,7525,14921,0.182,551
2021-07-07T15:19:36,42.805,6.029,CST-1368DR,5411,7525,14920,0.182,551
2021-07-07T15:22:37,42.805,6.029,CST-1368DR,5411,7522,14915,0.184,551
2021-07-07T15:25:39,42.805,6.029,CST-1368DR,5411,7524,14920,0.182,551
2021-07-07T15:28:40,42.805,6.029,CST-1368DR,5411,7524,14919,0.183,551
2021-07-07T15:31:42,42.805,6.029,CST-1368DR,5411,7525,14920,0.182,551
2021-07-07T15:34:43,42.805,6.029,CST-1368DR,5411,7523,14917,0.183,551
2021-07-07T15:37:45,42.805,6.029,CST-1368DR,5411,7524,14918,0.183,551
2021-07-07T15:40:47,42.805,6.029,CST-1368DR,5411,7524,14920,0.182,551
2021-07-07T15:43:48,42.805,6.029,CST-1368DR,5411,7524,14919,0.183,551
2021-07-07T15:46:50,42.805,6.029,CST-1368DR,5411,7523,14917,0.183,551
2021-07-07T15:49:51,42.805,6.029,CST-1368DR,5411,7524,14919,0.183,551
2021-07-07T15:52:53,42.805,6.029,CST-1368DR,5411,7523,14917,0.183,551
2021-07-07T15:55:55,42.805,6.029,CST-1368DR,5410,7522,14917,0.183,551
2021-07-07T15:58:56,42.805,6.029,CST-1368DR,5411,7524,14920,0.182,551
2021-07-07T16:01:58,42.805,6.029,CST-1368DR,5411,7523,14918,0.183,551
2021-07-07T16:04:59,42.805,6.029,CST-1368DR,5410,7523,14920,0.182,551
2021-07-07T16:08:01,42.805,6.029,CST-1368DR,5411,7524,14919,0.183,551
2021-07-07T16:11:02,42.805,6.029,CST-1368DR,5410,7521,14915,0.184,551
2021-07-07T16:14:04,42.805,6.029,CST-1368DR,5411,7523,14918,0.183,551
2021-07-07T16:17:06,42.805,6.029,CST-1368DR,5411,7524,14919,0.183,551
2021-07-07T16:20:07,42.805,6.029,CST-1368DR,5411,7524,14919,0.183,551
2021-07-07T16:23:09,42.805,6.029,CST-1368DR,5411,7524,14920,0.182,550
2021-07-07T16:26:10,42.805,6.029,CST-1368DR,5411,7524,14919,0.183,551
2021-07-07T16:29:12,42.805,6.029,CST-1368DR,5411,7523,14917,0.183,551
2021-07-07T16:32:14,42.805,6.029,CST-1368DR,5410,7524,14921,0.182,551
2021-07-07T16:35:15,42.805,6.029,CST-1368DR,5411,7524,14920,0.182,551
2021-07-07T16:38:17,42.805,6.029,CST-1368DR,5410,7524,14921,0.182,551
2021-07-07T16:41:18,42.805,6.029,CST-1368DR,5410,7522,14918,0.183,551
2021-07-07T16:44:20,42.805,6.029,CST-1368DR,5410,7524,14921,0.182,551
2021-07-07T16:47:21,42.805,6.029,CST-1368DR,5410,7523,14919,0.183,551
2021-07-07T16:50:23,42.805,6.029,CST-1368DR,5410,7522,14918,0.183,551
2021-07-07T16:53:25,42.805,6.029,CST-1368DR,5410,7522,14918,0.183,551
2021-07-07T16:56:26,42.805,6.029,CST-1368DR,5410,7523,14920,0.182,551